Junction, TX

10:22 PM CDT on August 31, 2016 (GMT -0500)
Kimble County

Weather History for KJCT - January, 2014

Change the Weather History Date:

Wednesday, January 8, 2014

  Actual Average Record
Temperature  
Mean Temperature 48 °F -  
Max Temperature 57 °F 59 °F 84 °F (2006)
Min Temperature 39 °F 31 °F 21 °F (2007)
Degree Days  
Heating Degree Days 17    
Moisture  
Dew Point 41 °F    
Average Humidity 81    
Maximum Humidity 97    
Minimum Humidity 62    
Precipitation  
Precipitation 0.00 in - - ()
Sea Level Pressure  
Sea Level Pressure 30.09 in    
Wind  
Wind Speed 7 mph (SW)    
Max Wind Speed 13 mph    
Max Gust Speed 25 mph    
Visibility 9 miles    
Events      
Averages and records for this station are not official NWS values.
T = Trace of Precipitation, MM = Missing Value Source: NWS Daily Summary

Daily Weather History Graph

Daily Weather History Graph

Search for Another Location

Airport or City:

Trip Planner

Search our weather history database for the weather conditions in past years. The results will help you decide how hot, cold, wet, or windy it might be!

Date:

Astronomy

Jan. 08, 2014 Rise Set
Actual Time 7:37 AM CST 5:54 PM CST
Civil Twilight 7:10 AM CST 6:20 PM CST
Nautical Twilight 6:41 AM CST 6:50 PM CST
Astronomical Twilight 6:11 AM CST 7:19 PM CST
Moon 12:35 PM CST (1/8) 12:58 AM CST (1/8)
Length of Visible Light 11h 10m
Length of Day
10h 17m
First Quarter, 56% of the Moon is Illuminated
Jan 8
First Quarter
Jan 15
Full
Jan 23
Last Quarter
Jan 30
New
Feb 6
First Quarter

Hourly Weather History & Observations

Time (CST) Temp. Windchill Dew Point Humidity Pressure Visibility Wind Dir Wind Speed Gust Speed Precip Events Conditions
12:51 AM 39.0 °F 32.3 °F 33.1 °F 79% 30.19 in 9.0 mi SSW 10.4 mph - N/A   Overcast
1:15 AM 37.4 °F 31.4 °F 33.8 °F 87% 30.21 in 9.0 mi SSW 8.1 mph - N/A   Overcast
1:51 AM 37.9 °F 30.9 °F 33.1 °F 83% 30.17 in 9.0 mi South 10.4 mph - N/A   Overcast
2:51 AM 37.9 °F 35.5 °F 34.0 °F 86% 30.15 in 10.0 mi South 3.5 mph - N/A   Overcast
3:51 AM 39.0 °F 34.8 °F 35.1 °F 86% 30.14 in 10.0 mi SSW 5.8 mph - N/A   Overcast
4:51 AM 39.9 °F 35.8 °F 36.0 °F 86% 30.12 in 10.0 mi WSW 5.8 mph - N/A   Overcast
5:51 AM 39.9 °F 37.8 °F 37.0 °F 89% 30.10 in 9.0 mi WSW 3.5 mph - N/A   Overcast
6:51 AM 41.0 °F - 37.9 °F 89% 30.10 in 9.0 mi Calm Calm - N/A   Overcast
7:51 AM 45.0 °F 40.6 °F 41.0 °F 86% 30.10 in 9.0 mi SSW 8.1 mph - N/A   Overcast
8:51 AM 46.9 °F - 42.1 °F 83% 30.12 in 10.0 mi SSW 9.2 mph 18.4 mph N/A   Overcast
9:51 AM 48.0 °F - 42.1 °F 80% 30.14 in 10.0 mi SW 9.2 mph - N/A   Overcast
10:01 AM 48.2 °F - 42.8 °F 82% 30.18 in 10.0 mi SSW 11.5 mph 20.7 mph N/A   Overcast
10:51 AM 48.9 °F - 43.0 °F 80% 30.14 in 10.0 mi SSW 11.5 mph 25.3 mph N/A   Overcast
11:51 AM 50.0 °F - 43.0 °F 77% 30.10 in 10.0 mi SSW 12.7 mph 18.4 mph N/A   Overcast
12:51 PM 53.1 °F - 43.0 °F 69% 30.05 in 10.0 mi SW 10.4 mph 19.6 mph N/A   Mostly Cloudy
1:02 PM 53.6 °F - 44.6 °F 72% 30.08 in 10.0 mi SW 10.4 mph - N/A   Partly Cloudy
1:51 PM 55.0 °F - 44.1 °F 67% 30.01 in 10.0 mi SW 9.2 mph - N/A   Clear
2:51 PM 57.0 °F - 44.1 °F 62% 30.00 in 10.0 mi SW 9.2 mph - N/A   Clear
3:51 PM 55.9 °F - 44.1 °F 64% 29.99 in 9.0 mi SW 6.9 mph - N/A   Clear
4:51 PM 55.9 °F - 44.1 °F 64% 29.99 in 9.0 mi SW 5.8 mph - N/A   Clear
5:51 PM 53.1 °F - 45.0 °F 74% 30.01 in 9.0 mi SSE 8.1 mph - N/A   Clear
6:51 PM 51.1 °F - 44.1 °F 77% 30.03 in 10.0 mi SSW 4.6 mph - N/A   Clear
7:51 PM 50.0 °F - 44.1 °F 80% 30.05 in 10.0 mi South 4.6 mph - N/A   Clear
8:51 PM 48.0 °F - 44.1 °F 86% 30.06 in 10.0 mi Calm Calm - N/A   Clear
9:30 PM 46.4 °F - 42.8 °F 87% 30.12 in 9.0 mi Calm Calm - N/A   Mostly Cloudy
9:51 PM 46.0 °F - 43.0 °F 89% 30.08 in 9.0 mi Calm Calm - N/A   Overcast
10:09 PM 44.6 °F - 42.8 °F 93% 30.12 in 9.0 mi Calm Calm - N/A   Scattered Clouds
10:51 PM 43.0 °F 40.3 °F 42.1 °F 97% 30.09 in 8.0 mi WNW 4.6 mph - N/A   Partly Cloudy
11:11 PM 42.8 °F 41.1 °F 41.0 °F 93% 30.14 in 8.0 mi WNW 3.5 mph - N/A   Mostly Cloudy
11:19 PM 42.8 °F 41.1 °F 41.0 °F 93% 30.14 in 8.0 mi WNW 3.5 mph - N/A   Overcast
11:51 PM 44.1 °F - 42.1 °F 93% 30.09 in 8.0 mi Calm Calm - N/A   Overcast